If you wish to contribute or participate in the discussions about articles you are invited to join SKYbrary as a registered user

 Actions

Kamloops Airport

From SKYbrary Wiki

CYKA
Airport
ICAO: CYKA
Summary
Name Kamloops Airport
Region North America
Territory Canada CA.gif
Location Kamloops, British Columbia
Serving
Coordinates 50° 42' 8.00" N, 120° 26' 31.00" W
Runways
Designator Length Width Surface ROPS
4/22 632 m2,073.491 ft <br /> 15 m49.213 ft <br /> ASP yes/yes
8/26 1829 m6,000.656 ft <br /> 45 m147.638 ft <br /> ASP yes/yes


METAR
Observation CYKA 241200Z 28011G18KT 40SM SCT070 00/M07 A3044 RMK AC4 SLP327
Station Kamloops, B. C.
Date/Time 24 February 2021 12:00:00
Wind direction 280°
Wind speed 11 kts
Lowest cloud amount scattered clouds
Temperature 0°C
Dew point
Humidity 59%
QNH hPa
Weather condition n/a

BS
Tag(s) Bird Strike
CFIT
Tag(s) Altimeter Temperature Error Correction
Runway Visual Perspective
WX
Tag(s) Cumulonimbus
Mountain Waves
Low Level Turbulence

Kamloops Airport

ICAO: CYKA IATA: YKA

Description

Regional airport located near Kamloops, British Columbia.

Climatology

Semi-arid Steppe climate (Köppen climate classification BSk) - Little precipitation, hot summers and cold winters, sometimes with large changes in temperature in a 24 hour period.

Maps

Terrain

Loading map...

Airport Layout

Loading map...


Accidents & Serious Incidents at or in vicinity of CYKA

None on SKYbrary